Weather History for Newburgh, NY

Change the Weather History Date:

Wednesday, February 13, 2013

  Actual Average Record
Temperature  
Mean Temperature 33 °F -  
Max Temperature 42 °F 36 °F 30 °F (2014)
Min Temperature 24 °F 18 °F 15 °F (2014)
Degree Days  
Heating Degree Days 32    
Moisture  
Dew Point 24 °F    
Average Humidity 66    
Maximum Humidity 93    
Minimum Humidity 45    
Precipitation  
Precipitation 0.00 in - - ()
Sea Level Pressure  
Sea Level Pressure 29.82 in    
Wind  
Wind Speed 6 mph (WNW)    
Max Wind Speed 9 mph    
Max Gust Speed -    
Visibility 14 miles    
Events Snow    
Averages and records for this station are not official NWS values.
T = Trace of Precipitation, MM = Missing Value Source: NWS Daily Summary

Daily Weather History Graph

Daily Weather History Graph

Search for Another Location

Airport:

Trip Planner

Search our weather history database for the weather conditions in past years. The results will help you decide how hot, cold, wet, or windy it might be!

Date:

Astronomy

Feb. 13, 2013 Rise Set
Actual Time 6:53 AM EST 5:27 PM EST
Civil Twilight 6:25 AM EST 5:56 PM EST
Nautical Twilight 5:52 AM EST 6:28 PM EST
Astronomical Twilight 5:20 AM EST 7:01 PM EST
Moon 8:18 AM EST (2/13) 9:31 PM EST (2/13)
Length of Visible Light 11h 31m
Length of Day
10h 34m
Waxing Crescent, 13% of the Moon is Illuminated
Feb 13
Waxing Crescent
Feb 17
First Quarter
Feb 25
Full
Mar 4
Last Quarter
Mar 11
New

Hourly Weather History & Observations

Time (EST) Temp. Windchill Dew Point Humidity Pressure Visibility Wind Dir Wind Speed Gust Speed Precip Events Conditions
12:45 AM 33.8 °F 28.6 °F 24.8 °F 70% 29.91 in 10.0 mi WNW 5.8 mph - N/A   Overcast
1:45 AM 33.8 °F 27.0 °F 23.0 °F 65% 29.92 in 10.0 mi WNW 8.1 mph - N/A   Overcast
2:45 AM 33.8 °F 27.0 °F 23.0 °F 65% 29.93 in 10.0 mi WNW 8.1 mph - N/A   Overcast
3:45 AM 32.0 °F 26.4 °F 23.0 °F 69% 29.92 in 10.0 mi WNW 5.8 mph - N/A   Overcast
4:45 AM 32.0 °F 24.8 °F 23.0 °F 69% 29.90 in 10.0 mi WNW 8.1 mph - N/A   Mostly Cloudy
6:50 AM 26.6 °F 19.1 °F 21.2 °F 80% 29.89 in 20.0 mi NW 6.9 mph - N/A   Clear
7:50 AM 24.8 °F 19.1 °F 21.2 °F 86% 29.90 in 20.0 mi WNW 4.6 mph - N/A   Clear
8:45 AM 30.2 °F 23.4 °F 21.2 °F 69% 29.89 in 20.0 mi West 6.9 mph - N/A   Clear
9:45 AM 33.8 °F 28.6 °F 23.0 °F 65% 29.87 in 20.0 mi WNW 5.8 mph - N/A   Clear
11:45 AM 41.0 °F - 21.2 °F 45% 29.86 in 20.0 mi Calm Calm - N/A   Partly Cloudy
12:45 PM 39.2 °F - 21.2 °F 49% 29.82 in 20.0 mi Calm Calm - N/A   Scattered Clouds
1:45 PM 42.8 °F - 23.0 °F 46% 29.77 in 20.0 mi Calm Calm - N/A   Clear
3:45 PM 41.0 °F 39.0 °F 21.2 °F 45% 29.74 in 20.0 mi Variable 3.5 mph - N/A   Mostly Cloudy
4:50 PM 39.2 °F 35.0 °F 24.8 °F 56% 29.73 in 20.0 mi Variable 5.8 mph - N/A   Mostly Cloudy
5:50 PM 39.2 °F 35.0 °F 24.8 °F 56% 29.72 in 10.0 mi Variable 5.8 mph - N/A   Mostly Cloudy
7:45 PM 35.6 °F 30.7 °F 26.6 °F 70% 29.71 in 10.0 mi Variable 5.8 mph - N/A   Overcast
8:50 PM 35.6 °F 30.7 °F 24.8 °F 65% 29.72 in 6.0 mi Variable 5.8 mph - N/A   Overcast
9:50 PM 33.8 °F 28.6 °F 30.2 °F 87% 29.73 in 3.0 mi Variable 5.8 mph - N/A Snow Light Snow
11:45 PM 32.0 °F 24.2 °F 30.2 °F 93% 29.72 in 4.0 mi NE 9.2 mph - N/A Snow Light Snow